Starlink 30347

operational
NORAD ID: 57699 Int'l Des: 2023-129 Owner: SPXS Country: US Constellation: starlink
LEOCIRCULAR

Starlink 30347について

説明を読み込み中...

リアルタイム位置

3D地球を読み込み中...

次回通過

高度履歴

Altitude vs Time

uPlot chart will show altitude changes over time

軌道要素

1 57699U 23129B 25303.75148928 .00000444 00000-0 47956-4 0 9997
2 57699 43.0034 93.9555 0001259 273.3990 86.6709 15.02534327121257
Epoch: Oct 30, 2025 • Age: 18 hours

現在のステータス

高度 559.1 km
速度 7.59 km/s
衛星直下点 21.45°N, 21.4°E
打ち上げ日 Aug 27, 2023
運用期間 2.1 years
タイプ internet

技術仕様

分類 Payload
質量 730.00 kg
乾燥質量 700.00 kg
総質量 730.00 kg
長さ 0.30 m
直径 4.10 m
スパン 29.00 m
形状 Box + pan
製造者 SPXS
バスタイプ Starlink V2M
フェーズステータス In Orbit
所有者/国 SPXS/US

大規模コンステレーション

Loading constellations...